383P/Christensen (2019)

Japanese version
Home page
Updated on August 15, 2020

---------------------------------------------------------------------

* Profile

Designation 383P/2019 M1
Recovery Date June 25, 2019
Magnitude 19.9 mag
Recoverer K. Sarneczky (Konkoly Observatory)

* Orbital Elements

Epoch 2019 Nov. 13.0 TT = JDT 2458800.5                                         
T 2019 Oct. 26.20432 TT                                 Williams                
q   1.4192100            (2000.0)            P               Q                  
n   0.14779703     Peri.  133.61620     +0.94059948     +0.32450144             
a   3.5429002      Node   207.89825     -0.33883682     +0.91581710             
e   0.5994214      Incl.   12.32250     +0.02149933     +0.23659639             
P   6.67                                                                        
From 301 observations 2006 Sept. 16-2019 July 8, mean residual 0".6.            

* Magnitudes Graph

        m1 = 17.0 + 5 log d + 10.0 log r

---------------------------------------------------------------------

The orbital elements are published on M.P.E.C. 2019-X94.
The magnitudes graphs are made with Comet for Windows.

---------------------------------------------------------------------

Copyright(C) Seiichi Yoshida (comet@aerith.net). All rights reserved.